Location: Agawz
(31.1559°N, 8.7810°W)
Time: 02:12:37
(UTC+00:00)

Daily predictions for brighter satellites

Satellite Brightness Start Highest point End
(mag) Time Altitude Azimuth Time Altitude Azimuth Time Altitude Azimuth
Milstar 3 Cent rocket 3.6 04:03:31 49° ESE 04:03:31 49° ESE 04:12:07 10° E
NOSS 3-4 (A) 4.4 04:19:50 40° ESE 04:19:50 40° ESE 04:24:57 10° NE
NOSS 3-4 (C) 4.4 04:19:50 40° ESE 04:19:50 40° ESE 04:25:04 10° NE
Atlas Centaur 2 3.2 04:37:03 41° SSE 04:37:03 41° SSE 04:42:17 10° E
ATLAS 2AS CENTAUR R/B 3.7 04:31:00 10° S 04:38:30 52° ESE 04:46:09 10° NE
USA 234 4.4 04:39:48 10° ENE 04:45:49 38° SE 04:51:48 10° SSW
H-2A R/B 4.3 04:46:31 10° SSE 04:47:33 17° SSE 04:47:33 17° SSE
SL-16 R/B 2.6 05:02:46 49° SSW 05:02:46 49° SSW 05:07:00 10° S
Cosmos 1745 Rocket 4.5 04:59:45 10° SSW 05:07:56 43° NNW 05:12:11 10° N
BREEZE-M DEB (TANK) 3.3 05:08:12 39° E 05:08:12 39° E 05:11:34 10° NE
METEOR-M 4.3 05:03:12 10° NNE 05:08:33 71° ESE 05:13:51 10° S
USA 238 DEB 4.3 05:05:56 22° NNW 05:10:51 59° ENE 05:18:18 10° SE
USA 238 4.4 05:06:00 22° NNW 05:10:56 58° ENE 05:18:23 10° SE
Cosmos 389 Rocket 4.2 05:12:44 27° SSE 05:12:44 27° SSE 05:14:28 10° SSE
CZ-4C R/B 2.8 05:14:04 10° S 05:18:25 46° ESE 05:23:23 10° NE
ERS-2 3.0 05:18:21 10° SSE 05:21:50 46° ENE 05:23:14 29° NNE
ALOS 3.9 05:18:01 10° N 05:25:39 21° SSW 05:27:13 10° SSW
ASTRO E2 2.6 05:23:48 79° ENE 05:23:48 79° ENE 05:27:33 10° E
Lacrosse 5 1.7 05:23:01 57° WSW 05:23:58 73° NW 05:29:02 10° NNE
Cosmos 2263 Rocket 2.5 05:28:08 43° NW 05:28:08 43° NW 05:33:04 10° N
Cosmos 773 Rocket 3.9 05:26:16 35° NNW 05:28:33 78° WSW 05:33:45 10° S
Cosmos 1709 Rocket 3.9 05:25:13 10° SSW 05:31:31 73° W 05:37:54 10° N
Meteor 2-3 Rocket 3.8 05:27:56 10° S 05:33:36 81° E 05:39:21 10° N
SJ 16-02 1.2 05:29:35 10° SSW 05:33:59 82° WNW 05:38:25 10° NNE
Okean 3 Rocket 3.4 05:31:20 10° S 05:35:41 78° W 05:40:04 10° N
FALCON 9 DEB 4.0 05:37:13 34° NNE 05:37:13 34° NNE 05:39:15 10° NE
Cosmos 1766 Rocket 3.4 05:32:54 10° S 05:37:22 81° W 05:41:51 10° N
GPS 2-04 Rocket1 2.6 05:37:37 57° NW 05:37:53 59° NNW 05:41:38 10° ENE
ADEOS Rocket 4.1 05:33:42 10° SSW 05:37:07 24° WSW 05:37:07 24° WSW
Meteor PRIRODA 4.3 05:36:10 10° NNE 05:39:51 57° E 05:43:30 10° S
OAO 2 Rocket 3.3 05:41:42 39° W 05:43:29 67° NNW 05:48:36 10° ENE
COSMO-SKYMED 1 3.3 05:40:03 10° SSE 05:44:16 54° ENE 05:48:30 10° N
Cosmos 1408 Rocket 4.0 05:41:55 10° S 05:46:19 64° E 05:50:44 10° NNE
Chunghua 1 4.3 05:46:28 52° W 05:47:13 74° NNW 05:50:51 10° ENE
Cosmos 990 Rocket 4.3 05:43:31 10° S 05:48:41 70° ESE 05:53:54 10° NNE
SJ-12 3.8 05:47:35 10° N 05:51:35 60° WNW 05:55:34 10° SSW
SL-8 R/B 4.5 05:52:30 28° W 05:53:56 34° SW 05:58:16 10° SSE
Cosmos 1606 3.2 05:55:41 33° WNW 05:56:10 35° W 05:59:38 10° SSW
Cosmos 1603 3.7 05:50:34 10° NNW 05:56:13 90° E 06:01:51 10° SSE
deb Centaur AC-2 4.3 05:54:02 23° WSW 05:57:03 72° S 06:01:27 10° E
FENGYUN 3A 4.4 05:52:59 10° NNW 05:57:34 29° WNW 06:02:08 10° SW
Cosmos 2074 Rocket 4.3 05:53:58 10° S 06:00:07 69° E 06:06:16 10° N
Cosmos 1933 3.3 05:58:23 10° NNW 06:02:27 64° W 06:06:28 10° S
SWAS 4.5 05:59:55 19° NW 06:02:48 58° WSW 06:06:59 10° S
OAO 3 Rocket 3.1 06:00:40 25° WNW 06:03:19 77° SSW 06:08:03 10° ESE
ADEOS 4.4 06:00:09 10° NNW 06:04:29 27° WNW 06:08:47 10° SW
Cosmos 1943 3.2 06:00:01 10° NNW 06:05:45 86° WSW 06:11:26 10° SSE
FALCON 9 DEB 3.9 06:05:41 28° NW 06:05:56 28° NW 06:08:46 10° NNE
SKYMED 3 4.5 06:03:57 10° S 06:08:16 75° W 06:12:37 10° NNW
CZ-4B R/B 2.2 06:05:40 10° SSW 06:08:25 27° W 06:08:59 25° W
FALCON 9 DEB 4.1 06:08:19 24° NW 06:08:33 25° NW 06:11:15 10° NNE
RESURS DK-1 2.3 06:05:39 10° SSW 06:09:47 85° WNW 06:13:57 10° NNE
NOSS 3-4 (A) 4.3 06:07:25 18° W 06:10:19 26° NW 06:15:19 10° N
NOSS 3-4 (C) 4.3 06:07:25 17° W 06:10:26 26° NW 06:15:28 10° N
Meteor 1-4 Rocket 2.4 06:07:33 10° N 06:11:00 88° E 06:14:25 10° S
Meteor 1-31 Rocket 4.4 06:15:12 16° W 06:15:12 16° W 06:16:35 10° WSW
Cosmos 2084 3.5 06:09:45 12° NNW 06:13:57 86° WSW 06:18:27 10° SSE
Cosmos 2184 Rocket 4.1 06:07:50 10° S 06:14:06 88° E 06:20:28 10° N
Genesis I 3.0 06:11:16 10° SSW 06:15:03 73° WNW 06:18:53 10° NNE
Cosmos 1782 3.0 06:11:22 10° N 06:15:23 76° E 06:19:25 10° S
NOSS 3-2 (C) 4.2 06:08:49 10° NNW 06:16:51 75° WSW 06:25:35 10° SSE
Cosmos 405 Rocket 3.7 06:14:19 10° S 06:17:50 47° E 06:21:24 10° NNE
H-2A R/B 3.2 06:14:53 10° NNE 06:18:37 52° E 06:22:20 10° S
Cosmos 1538 Rocket 4.5 06:16:19 10° NNW 06:21:16 41° W 06:26:09 10° S
Yuri Rocket 4.5 06:16:21 11° W 06:24:51 71° S 06:31:04 10° E
Cosmos 158 Rocket 4.0 06:19:56 10° NNW 06:24:52 79° ENE 06:29:52 10° SSE
Atlas Centaur 2 2.1 06:19:56 10° WSW 06:26:04 75° S 06:30:47 10° E
Cosmos 1633 4.2 06:24:36 10° WSW 06:26:36 14° WNW 06:28:37 10° NW
SJ-7 4.3 06:23:10 10° N 06:27:13 72° WNW 06:31:18 10° SSW
USA 234 3.5 06:22:34 10° NNE 06:28:46 48° NW 06:34:58 10° WSW
CENTAUR R/B 3.4 06:21:07 10° NW 06:29:32 64° WSW 06:38:16 10° SSE
ATLAS 2AS CENTAUR R/B 3.7 06:22:48 10° WSW 06:29:44 33° NW 06:36:42 10° N
USA 276 4.5 06:30:08 10° WSW 06:31:00 11° SW 06:31:52 10° SW
SKYMED 2 4.2 06:28:21 10° SSW 06:32:20 36° W 06:36:22 10° NNW
Delta 2 Rocket 3.8 06:28:02 12° WNW 06:32:21 58° SSW 06:36:31 10° SE
Cosmos 1812 4.3 06:29:31 10° NNE 06:33:07 37° E 06:36:41 10° SSE
EP 3 4.2 06:31:37 10° SW 06:33:52 36° WNW 06:35:49 10° N
Cosmos 1898 Rocket 3.9 06:33:08 10° SW 06:38:08 43° WNW 06:43:12 10° N
Cosmos 1515 Rocket 3.6 06:36:17 10° NNW 06:40:42 65° W 06:45:06 10° S
Milstar 3 Cent rocket 4.2 06:32:53 10° W 06:41:16 77° S 07:00:29 10° ESE
Lacrosse 4 Rocket 1.5 06:37:02 10° NNW 06:41:22 81° WSW 06:45:48 10° SSE
Cosmos 1689 Rocket 3.4 06:42:09 10° SSW 06:44:25 21° W 06:46:41 10° NW
YAOGAN 6 2.6 06:42:54 10° N 06:46:18 51° WNW 06:49:40 10° SSW
Cosmos 1844 Rocket 2.9 06:41:59 10° SW 06:47:23 47° WNW 06:52:49 10° N
Cosmos 1844 3.8 06:46:11 10° SW 06:51:35 55° WNW 06:57:02 10° N
Meteor 2-6 Rocket 4.2 06:46:12 10° N 06:51:36 89° W 06:57:05 10° S
